一网星座-0082星 (ONEWEB-0082 )

导读

ONEWEB-0082是英国一网公司(OneWeb)低轨卫星互联网星座中的一员,于北京时间2020年3月21日,搭乘联盟号火箭从哈萨克斯坦拜科努尔航天发射场成功发射,属于该批次发射的34颗卫星之一。单星质量约147.5kg,入轨后逐步提升至1200公里轨道高度,作为全球互联网星座组网卫星,旨在填补全球通信基础设施缺口,为海事、航空等领域提供高速低时延的全球网络覆盖服务。

Basic Information
目录编号:
45452
目录名称:
ONEWEB-0082
国际标识:
2020-020AE
轨道中心:
EARTH
卫星名称:
一网星座-0082星
卫星全名:
一网星座-0082星 (ONEWEB-0082 )
卫星状态:
在轨 (已飞行2365 天)
发射日期:
2020-03-21 UTC
国别 :
英国 (GB)
星等 :
--
This satellite is enrolled in the Space Conjunction Data Service (SCDS) and the current flight risk assessment level is: No High Risk
Orbit Information
数据来源 国际轨道数据 AOE轨道数据
星历时间 2026-09-11T15:40:07+0800
8小时前
查看轨道信息
2026-09-06T06:00:00+0800
5天前
查看轨道信息
半长轴 7595.83km 7595.798km
偏心率 0.0002224 0.0002003
轨道倾角 87.897° 87.897°
近地点辐角 105.738° 103.398°
升交点赤经 3.939° 5.009°
平近点角 254.400° 323.825°
近地点 1216.003km 1216.139km
远地点 1219.383km 1219.183km
周期 109.805分钟 109.804分钟
每日圈数 13.114143 13.114227
Detailed Information
平衡模式:
三轴稳定
覆盖范围:
全球
运营商:
一网卫星公司
运营商所在国:
英国
制造商(研发单位):
一网卫星公司
制造商所在国:
英国
使用方式:
暂无
Satellite Introduction
OneWeb卫星网络由648颗重约125公斤的微型卫星组成,运行在1200公里的轨道上。 每颗卫星都能够提供至少每秒8千兆位的吞吐量,以使用其高吞吐量的Ku频段有效载荷为家庭和移动平台提供互联网接入。该卫星仍在工作。
2D Orbit Map
3D Orbit Map
Orbit Altitude Analysis Chart
Orbit Inclination Analysis Chart
Orbit Comprehensive Analysis Chart
View Comprehensive Chart
Miss Distance Evolution Trend with All Objects
Collision Probability Evolution Trend with All Objects